When you browse on this site, cookies collect data to enhance your experience and personalize the content and advertising you see.
Visit our Privacy Policy to learn more. By continuing to use the site, you agree to this use of cookies and data.
  • In Sweden
  • List of Countries
  • For 7 days
  • Water Temperature
  • Weather Map
  • Weather Widgets
  • user-avatar
    Login

    Hourly Weather Steinkjer

    Today, 27 May, Wednesday

    Time Temperature Precipitation Wind Pressure Humidity
    00:00 +6°C° 0 mm 4 mps 763 mmHg 89%
    01:00 +5°C° 0 mm 4 mps 763 mmHg 92%
    02:00 +5°C° 0 mm 4 mps 763 mmHg 92%
    03:00 +5°C° 0 mm 4 mps 763 mmHg 92%
    04:00 +5°C° 0 mm 4 mps 763 mmHg 92%
    05:00 +6°C° 0.1 mm 5 mps 763 mmHg 87%
    06:00 +7°C° 0.1 mm 6 mps 762 mmHg 82%
    07:00 +8°C° 0 mm 6 mps 762 mmHg 76%
    08:00 +8°C° 0.2 mm 7 mps 762 mmHg 75%
    09:00 +8°C° 0.2 mm 7 mps 762 mmHg 75%
    10:00 +7°C° 0.2 mm 8 mps 762 mmHg 75%
    11:00 +9°C° 0.3 mm 8 mps 762 mmHg 74%
    12:00 +9°C° 0.3 mm 8 mps 762 mmHg 73%
    13:00 +9°C° 0.3 mm 8 mps 762 mmHg 73%
    14:00 +9°C° 0.5 mm 8 mps 762 mmHg 72%
    15:00 +9°C° 0.5 mm 8 mps 762 mmHg 71%
    16:00 +9°C° 0.5 mm 8 mps 763 mmHg 70%
    17:00 +8°C° 0.2 mm 7 mps 763 mmHg 73%
    18:00 +8°C° 0.2 mm 7 mps 763 mmHg 75%
    19:00 +6°C° 0.2 mm 7 mps 763 mmHg 78%
    20:00 +7°C° 0.1 mm 6 mps 763 mmHg 81%
    21:00 +5°C° 0.1 mm 6 mps 763 mmHg 85%
    22:00 +5°C° 0.1 mm 5 mps 764 mmHg 89%
    23:00 +5°C° 0.1 mm 5 mps 764 mmHg 88%

    Tomorrow, 28 May, Thursday

    Time Temperature Precipitation Wind Pressure Humidity
    00:00 +5°C° 0.1 mm 5 mps 764 mmHg 88%
    01:00 +5°C° 0.1 mm 5 mps 764 mmHg 88%
    02:00 +4°C° 0.1 mm 6 mps 764 mmHg 88%
    03:00 +4°C° 0.1 mm 6 mps 764 mmHg 88%
    04:00 +5°C° 0.1 mm 6 mps 763 mmHg 88%
    05:00 +5°C° 0.4 mm 6 mps 763 mmHg 89%
    06:00 +4°C° 0.4 mm 6 mps 764 mmHg 90%
    07:00 +4°C° 0.4 mm 6 mps 764 mmHg 91%
    08:00 +5°C° 0.4 mm 7 mps 764 mmHg 89%
    09:00 +5°C° 0.4 mm 7 mps 764 mmHg 87%
    10:00 +5°C° 0.4 mm 7 mps 764 mmHg 85%
    11:00 +5°C° 0.3 mm 7 mps 764 mmHg 85%
    12:00 +5°C° 0.3 mm 8 mps 764 mmHg 85%
    13:00 +6°C° 0.3 mm 8 mps 765 mmHg 84%
    14:00 +6°C° 0.2 mm 8 mps 765 mmHg 84%
    15:00 +6°C° 0.2 mm 7 mps 765 mmHg 84%
    16:00 +6°C° 0.2 mm 7 mps 765 mmHg 84%
    17:00 +7°C° 0.1 mm 6 mps 765 mmHg 82%
    18:00 +7°C° 0.1 mm 6 mps 765 mmHg 81%
    19:00 +7°C° 0.1 mm 5 mps 765 mmHg 80%
    20:00 +7°C° 0.1 mm 4 mps 765 mmHg 82%
    21:00 +6°C° 0.1 mm 4 mps 765 mmHg 85%
    22:00 +7°C° 0.1 mm 3 mps 765 mmHg 87%
    23:00 +7°C° 0 mm 3 mps 765 mmHg 89%

    Day after tomorrow, 29 May, Friday

    Time Temperature Precipitation Wind Pressure Humidity
    00:00 +5°C° 0 mm 3 mps 765 mmHg 90%
    01:00 +5°C° 0 mm 3 mps 765 mmHg 91%
    02:00 +6°C° 0 mm 2 mps 765 mmHg 91%
    03:00 +6°C° 0 mm 2 mps 765 mmHg 91%
    04:00 +6°C° 0 mm 2 mps 765 mmHg 91%
    05:00 +7°C° 0 mm 3 mps 765 mmHg 87%
    06:00 +7°C° 0 mm 3 mps 766 mmHg 83%
    07:00 +8°C° 0 mm 3 mps 766 mmHg 79%
    08:00 +9°C° 0 mm 3 mps 766 mmHg 74%
    09:00 +10°C° 0 mm 3 mps 766 mmHg 68%
    10:00 +11°C° 0 mm 3 mps 766 mmHg 63%
    11:00 +12°C° 0 mm 3 mps 766 mmHg 61%
    12:00 +13°C° 0 mm 2 mps 766 mmHg 60%
    13:00 +13°C° 0 mm 2 mps 766 mmHg 58%
    14:00 +13°C° 0 mm 2 mps 766 mmHg 58%
    15:00 +14°C° 0 mm 1 mps 766 mmHg 58%
    16:00 +14°C° 0 mm 1 mps 766 mmHg 58%
    17:00 +13°C° 0 mm 1 mps 766 mmHg 60%
    18:00 +13°C° 0 mm 1 mps 766 mmHg 61%
    19:00 +13°C° 0 mm 1 mps 766 mmHg 63%
    20:00 +12°C° 0 mm 1 mps 766 mmHg 69%
    21:00 +10°C° 0 mm 1 mps 766 mmHg 76%
    22:00 +8°C° 0 mm 0 mps 766 mmHg 82%
    23:00 +7°C° 0 mm 0 mps 766 mmHg 84%

    30 May, Saturday

    Time Temperature Precipitation Wind Pressure Humidity
    00:00 +7°C° 0 mm 0 mps 767 mmHg 85%
    01:00 +7°C° 0 mm 0 mps 767 mmHg 86%
    02:00 +8°C° 0 mm 1 mps 767 mmHg 85%
    03:00 +8°C° 0 mm 1 mps 767 mmHg 84%
    04:00 +9°C° 0 mm 1 mps 767 mmHg 83%
    05:00 +10°C° 0 mm 1 mps 767 mmHg 76%
    06:00 +12°C° 0 mm 1 mps 767 mmHg 69%
    07:00 +14°C° 0 mm 1 mps 767 mmHg 62%
    08:00 +15°C° 0 mm 1 mps 767 mmHg 58%
    09:00 +18°C° 0 mm 1 mps 767 mmHg 54%
    10:00 +19°C° 0 mm 1 mps 767 mmHg 50%
    11:00 +20°C° 0 mm 1 mps 766 mmHg 47%
    12:00 +21°C° 0 mm 1 mps 766 mmHg 45%
    13:00 +22°C° 0 mm 1 mps 766 mmHg 42%
    14:00 +22°C° 0 mm 1 mps 766 mmHg 42%
    15:00 +23°C° 0 mm 1 mps 766 mmHg 41%
    16:00 +23°C° 0 mm 1 mps 765 mmHg 40%
    17:00 +23°C° 0 mm 1 mps 765 mmHg 42%
    18:00 +22°C° 0 mm 1 mps 765 mmHg 45%
    19:00 +22°C° 0 mm 1 mps 765 mmHg 48%
    20:00 +19°C° 0 mm 2 mps 765 mmHg 52%
    21:00 +17°C° 0 mm 2 mps 765 mmHg 57%
    22:00 +15°C° 0 mm 2 mps 765 mmHg 61%
    23:00 +15°C° 0 mm 2 mps 766 mmHg 61%

    31 May, Sunday

    Time Temperature Precipitation Wind Pressure Humidity
    00:00 +14°C° 0 mm 2 mps 766 mmHg 60%
    01:00 +14°C° 0 mm 2 mps 766 mmHg 59%
    02:00 +14°C° 0 mm 2 mps 766 mmHg 60%
    03:00 +13°C° 0 mm 2 mps 765 mmHg 60%
    04:00 +13°C° 0 mm 2 mps 765 mmHg 60%
    05:00 +15°C° 0 mm 2 mps 765 mmHg 56%
    06:00 +16°C° 0 mm 2 mps 765 mmHg 52%
    07:00 +18°C° 0 mm 2 mps 765 mmHg 47%
    08:00 +19°C° 0 mm 2 mps 765 mmHg 45%
    09:00 +20°C° 0 mm 2 mps 765 mmHg 42%
    10:00 +21°C° 0 mm 3 mps 765 mmHg 39%
    11:00 +22°C° 0 mm 3 mps 765 mmHg 38%
    12:00 +24°C° 0 mm 2 mps 765 mmHg 36%
    13:00 +24°C° 0 mm 2 mps 765 mmHg 35%
    14:00 +25°C° 0 mm 2 mps 765 mmHg 35%
    15:00 +25°C° 0 mm 2 mps 764 mmHg 36%
    16:00 +25°C° 0 mm 1 mps 764 mmHg 36%
    17:00 +23°C° 0 mm 1 mps 764 mmHg 42%
    18:00 +21°C° 0 mm 2 mps 764 mmHg 48%
    19:00 +19°C° 0 mm 2 mps 764 mmHg 54%
    20:00 +18°C° 0 mm 2 mps 764 mmHg 61%
    21:00 +16°C° 0 mm 1 mps 764 mmHg 68%
    22:00 +14°C° 0 mm 1 mps 764 mmHg 74%
    23:00 +13°C° 0 mm 1 mps 764 mmHg 76%

    1 June, Monday

    Time Temperature Precipitation Wind Pressure Humidity
    00:00 +13°C° 0 mm 1 mps 764 mmHg 77%
    01:00 +11°C° 0 mm 0 mps 764 mmHg 78%
    02:00 +12°C° 0 mm 0 mps 764 mmHg 78%
    03:00 +12°C° 0 mm 0 mps 764 mmHg 78%
    04:00 +12°C° 0 mm 0 mps 763 mmHg 78%
    05:00 +13°C° 0 mm 0 mps 763 mmHg 73%
    06:00 +14°C° 0 mm 0 mps 763 mmHg 68%
    07:00 +16°C° 0 mm 0 mps 763 mmHg 62%
    08:00 +17°C° 0 mm 0 mps 763 mmHg 59%
    09:00 +18°C° 0 mm 0 mps 763 mmHg 55%
    10:00 +20°C° 0 mm 0 mps 763 mmHg 51%
    11:00 +22°C° 0 mm 1 mps 763 mmHg 48%
    12:00 +23°C° 0 mm 1 mps 762 mmHg 45%
    13:00 +24°C° 0 mm 1 mps 762 mmHg 43%
    14:00 +23°C° 0 mm 1 mps 762 mmHg 44%
    15:00 +23°C° 0 mm 1 mps 762 mmHg 45%
    16:00 +23°C° 0 mm 2 mps 762 mmHg 47%
    17:00 +22°C° 0 mm 1 mps 762 mmHg 51%
    18:00 +21°C° 0 mm 1 mps 761 mmHg 55%
    19:00 +20°C° 0 mm 1 mps 761 mmHg 60%
    20:00 +19°C° 0 mm 1 mps 761 mmHg 65%
    21:00 +16°C° 0 mm 1 mps 761 mmHg 71%
    22:00 +14°C° 0 mm 1 mps 761 mmHg 76%
    23:00 +14°C° 0 mm 1 mps 761 mmHg 78%
    Show more